BARLOW-WX Weather Reports


Display with metric or nautical units.
time (UTC)temp
F
wind
direction
speed
MPH
gust
MPH
rain 1hr
in
rain 24hr
in
rain mn
in
humidity
%
barometer
mb
20260503180200 59 233 20.0 0.0 0.00 0.00 0.00 51 984.8
20260503174617 58 237 21.0 0.0 0.00 0.00 0.00 47 985.3
20260503173138 58 235 21.0 0.0 0.00 0.00 0.00 45 984.6
20260503170148 57 235 21.0 0.0 0.00 0.00 0.00 45 984.6
20260503160158 56 235 18.0 0.0 0.00 0.00 0.00 52 984.1
20260503150154 53 237 15.0 0.0 0.00 0.00 0.00 57 985.2
20260503140205 51 228 16.0 0.0 0.00 0.00 0.00 59 985.2
20260503130152 44 225 11.0 0.0 0.00 0.00 0.00 69 985.5
20260503120205 41 217 9.0 0.0 0.00 0.00 0.00 70 985.7
20260503110152 37 213 9.0 0.0 0.00 0.00 0.00 73 984.8
20260503100154 36 211 8.0 0.0 0.00 0.00 0.00 74 984.8
20260503090149 36 207 9.0 0.0 0.00 0.00 0.00 71 985.0
20260503081618 36 201 8.0 0.0 0.00 0.00 0.00 68 985.5
20260503080145 36 201 7.0 0.0 0.00 0.00 0.00 67 985.0
20260503071618 36 190 7.0 0.0 0.00 0.00 0.00 68 985.7
20260503070148 36 200 7.0 0.0 0.00 0.00 0.00 68 985.7
20260503060208 36 197 6.0 0.0 0.00 0.00 0.00 70 986.7
20260503054618 37 193 5.0 0.0 0.00 0.00 0.00 71 987.1
20260503051618 35 190 5.0 0.0 0.00 0.00 0.00 74 987.3
20260503050149 36 195 5.0 0.0 0.00 0.00 0.00 74 987.3
20260503044617 36 198 4.0 0.0 0.00 0.00 0.00 71 987.6
20260503043137 36 196 4.0 0.0 0.00 0.00 0.00 72 987.1
20260503041618 37 195 5.0 0.0 0.00 0.00 0.00 72 987.1
20260503040151 37 198 5.0 0.0 0.00 0.00 0.00 72 987.1
20260503034618 37 202 5.0 0.0 0.00 0.00 0.00 68 988.2
20260503033139 37 202 5.0 0.0 0.00 0.00 0.00 70 988.3
20260503031618 38 201 5.0 0.0 0.00 0.00 0.00 70 988.3
20260503030150 38 208 5.0 0.0 0.00 0.00 0.00 70 988.3
20260503024618 38 207 4.0 0.0 0.00 0.00 0.00 61 989.0
20260503023137 39 217 4.0 0.0 0.00 0.00 0.00 66 988.7
20260503021618 39 228 5.0 0.0 0.00 0.00 0.00 66 988.7
20260503020148 39 232 5.0 0.0 0.00 0.00 0.00 66 988.7
20260503014618 40 241 5.0 0.0 0.00 0.00 0.00 62 988.2
20260503013136 40 244 5.0 0.0 0.00 0.00 0.00 62 988.2
20260503011618 41 239 5.0 0.0 0.00 0.00 0.00 62 988.2
20260503010148 41 243 5.0 0.0 0.00 0.00 0.00 62 988.2
20260503004617 42 242 5.0 0.0 0.00 0.00 0.00 51 989.0
20260503003131 43 241 5.0 0.0 0.00 0.00 0.00 51 989.2
20260503001618 44 243 3.0 0.0 0.00 0.00 0.00 51 989.2
20260503000153 44 260 3.0 0.0 0.00 0.00 0.00 51 989.2
20260502234620 45 278 4.0 0.0 0.00 0.00 0.00 41 989.1
20260502233131 46 274 6.0 0.0 0.00 0.00 0.00 42 989.1
20260502231619 46 275 7.0 0.0 0.00 0.00 0.00 42 989.1
20260502230146 46 276 8.0 0.0 0.00 0.00 0.00 42 989.1
20260502224619 46 278 9.0 0.0 0.00 0.00 0.00 44 989.4
20260502223137 47 276 10.0 0.0 0.00 0.00 0.00 41 990.2
20260502221619 47 276 10.0 0.0 0.00 0.00 0.00 41 990.2
20260502220146 47 276 11.0 0.0 0.00 0.00 0.00 41 990.2
20260502214619 47 277 11.0 0.0 0.00 0.00 0.00 43 990.2
20260502213137 47 276 10.0 0.0 0.00 0.00 0.00 43 989.9
20260502211619 47 274 10.0 0.0 0.00 0.00 0.00 43 989.9
20260502210148 47 272 10.0 0.0 0.00 0.00 0.00 43 989.9
20260502204618 47 271 10.0 0.0 0.00 0.00 0.00 39 990.3
20260502203137 47 270 10.0 0.0 0.00 0.00 0.00 39 990.8
20260502201619 47 272 10.0 0.0 0.00 0.00 0.00 39 990.8
20260502200146 47 271 11.0 0.0 0.00 0.00 0.00 39 990.8
20260502194619 47 271 11.0 0.0 0.00 0.00 0.00 40 990.9
20260502193132 47 273 11.0 0.0 0.00 0.00 0.00 40 990.9
20260502191619 47 276 11.0 0.0 0.00 0.00 0.00 40 991.0
20260502190147 47 276 11.0 0.0 0.00 0.00 0.00 40 991.0
20260502185128 46 278 11.0 0.0 0.00 0.00 0.00 45 990.9
20260502183138 46 280 11.0 0.0 0.00 0.00 0.00 46 990.9
20260502181618 46 281 11.0 0.0 0.00 0.00 0.00 46 990.9